Coatesville, PA

6:44 PM EST on November 21, 2019 (GMT -0500)
Chester County Carlson

Weather History for KMQS - September, 2019

Change the Weather History Date:

Monday, September 30, 2019

  Actual Average (WUND) Record (WUND)
Temperature  
Mean Temperature 64 °F -  
Max Temperature 69 °F - - (-1)
Min Temperature 60 °F - - (-1)
Growing Degree Days 14 (Base 50)    
Moisture  
Dew Point 55 °F    
Average Humidity 71    
Maximum Humidity 94    
Minimum Humidity 52    
Precipitation  
Precipitation 0.00 in - - ()
Sea Level Pressure  
Sea Level Pressure 30.28 in    
Wind  
Wind Speed 3 mph ()    
Max Wind Speed 9 mph    
Max Gust Speed 14 mph    
Visibility 10.0 miles    
Events Rain    
Averages and records for this station are not official NWS values.
T = Trace of Precipitation, MM = Missing Value Source: Averaged Metar Reports

Daily Weather History Graph

Daily Weather History Graph

Search for Another Location

Airport or City:

Astronomy

Sep. 30, 2019 Rise Set
Actual Time 6:58 AM EDT 6:47 PM EDT
Civil Twilight 6:31 AM EDT 7:14 PM EDT
Nautical Twilight 6:00 AM EDT 7:46 PM EDT
Astronomical Twilight 5:28 AM EDT 8:17 PM EDT
Moon 8:59 AM EDT (9/30) 8:22 PM EDT (9/30)
Length of Visible Light 12h 43m
Length of Day
11h 49m
Waxing Crescent, 5% of the Moon is Illuminated
Sep 30
Waxing Crescent
Oct 5
First Quarter
Oct 13
Full
Oct 21
Last Quarter
Oct 27
New

Hourly Weather History & Observations

Time (EDT) Temp. Dew Point Humidity Pressure Visibility Wind Dir Wind Speed Gust Speed Precip Events Conditions
12:15 AM 68.0 °F 62.6 °F 83% 30.30 in 10.0 mi Calm Calm - N/A   Overcast
12:35 AM 66.2 °F 62.6 °F 88% 30.30 in 10.0 mi Calm Calm - N/A   Mostly Cloudy
12:55 AM 66.2 °F 62.6 °F 88% 30.30 in 10.0 mi Calm Calm - N/A   Scattered Clouds
1:15 AM 66.2 °F 62.6 °F 88% 30.29 in 10.0 mi East 4.6 mph - N/A   Mostly Cloudy
1:35 AM 66.2 °F 62.6 °F 88% 30.30 in 10.0 mi ENE 5.8 mph - N/A   Scattered Clouds
1:55 AM 64.4 °F 62.6 °F 94% 30.30 in 10.0 mi ENE 5.8 mph - N/A   Scattered Clouds
2:15 AM 66.2 °F 62.6 °F 88% 30.30 in 10.0 mi Calm Calm - N/A   Scattered Clouds
2:35 AM 64.4 °F 60.8 °F 88% 30.29 in 10.0 mi Calm Calm - N/A   Clear
2:55 AM 64.4 °F 53.6 °F 68% 30.30 in 10.0 mi Calm Calm - N/A   Clear
3:15 AM 62.6 °F 48.2 °F 59% 30.29 in 10.0 mi Calm Calm - N/A   Clear
3:35 AM 62.6 °F 46.4 °F 55% 30.29 in 10.0 mi Calm Calm - N/A   Clear
3:55 AM 62.6 °F 44.6 °F 52% 30.29 in 10.0 mi Calm Calm - N/A   Clear
4:15 AM 60.8 °F 46.4 °F 59% 30.29 in 10.0 mi Calm Calm - N/A   Partly Cloudy
4:35 AM 60.8 °F 44.6 °F 55% 30.29 in 10.0 mi Calm Calm - N/A   Mostly Cloudy
4:55 AM 62.6 °F 44.6 °F 52% 30.29 in 10.0 mi East 9.2 mph - N/A   Overcast
5:15 AM 62.6 °F 44.6 °F 52% 30.29 in 10.0 mi East 9.2 mph - N/A   Overcast
5:35 AM 60.8 °F 44.6 °F 55% 30.29 in 10.0 mi East 6.9 mph - N/A   Overcast
5:55 AM 60.8 °F 44.6 °F 55% 30.29 in 10.0 mi East 5.8 mph - N/A   Overcast
6:15 AM 60.8 °F 46.4 °F 59% 30.30 in 10.0 mi ENE 3.5 mph 12.7 mph N/A   Unknown
6:35 AM 60.8 °F 46.4 °F 59% 30.30 in 10.0 mi East 6.9 mph - N/A   Overcast
6:55 AM 60.8 °F 46.4 °F 59% 30.30 in 10.0 mi ENE 8.1 mph - N/A   Overcast
7:15 AM 60.8 °F 46.4 °F 59% 30.31 in 10.0 mi ENE 3.5 mph - N/A   Overcast
7:35 AM 60.8 °F 48.2 °F 63% 30.31 in 10.0 mi Calm Calm - N/A   Overcast
7:55 AM 60.8 °F 48.2 °F 63% 30.31 in 10.0 mi Calm Calm 11.5 mph N/A   Overcast
8:15 AM 60.8 °F 48.2 °F 63% 30.32 in 10.0 mi Calm Calm - N/A   Overcast
8:35 AM 60.8 °F 50.0 °F 68% 30.33 in 10.0 mi ENE 3.5 mph - N/A   Overcast
8:55 AM 60.8 °F 50.0 °F 68% 30.33 in 10.0 mi Calm Calm - N/A Rain Light Rain
9:15 AM 60.8 °F 50.0 °F 68% 30.32 in 10.0 mi ENE 5.8 mph - N/A   Overcast
9:35 AM 60.8 °F 51.8 °F 72% 30.32 in 10.0 mi ENE 4.6 mph 13.8 mph N/A   Overcast
9:55 AM 62.6 °F 51.8 °F 68% 30.33 in 10.0 mi Calm Calm 12.7 mph N/A   Overcast
10:15 AM 62.6 °F 51.8 °F 68% 30.33 in 10.0 mi ENE 4.6 mph - N/A   Overcast
10:35 AM 64.4 °F 53.6 °F 68% 30.33 in 10.0 mi ENE 4.6 mph - N/A   Overcast
10:55 AM 64.4 °F 53.6 °F 68% 30.33 in 10.0 mi East 5.8 mph - N/A   Overcast
11:15 AM 64.4 °F 53.6 °F 68% 30.33 in 10.0 mi ENE 4.6 mph - N/A   Overcast
11:35 AM 64.4 °F 53.6 °F 68% 30.33 in - East 6.9 mph - N/A   Mostly Cloudy
11:55 AM 66.2 °F 55.4 °F 68% 30.32 in 10.0 mi ENE 8.1 mph - N/A   Overcast
12:15 PM 66.2 °F 55.4 °F 68% 30.31 in 10.0 mi Variable 5.8 mph - N/A   Overcast
12:35 PM 68.0 °F 57.2 °F 68% 30.30 in 10.0 mi ESE 6.9 mph - N/A   Overcast
12:55 PM 68.0 °F 57.2 °F 68% 30.30 in 10.0 mi Calm Calm - N/A   Overcast
1:15 PM 68.0 °F 59.0 °F 73% 30.29 in 10.0 mi SE 3.5 mph - N/A   Overcast
1:35 PM 69.8 °F 59.0 °F 68% 30.28 in 10.0 mi Variable 6.9 mph - N/A   Overcast
1:55 PM 69.8 °F 59.0 °F 68% 30.27 in 10.0 mi ESE 3.5 mph - N/A   Overcast
2:15 PM 68.0 °F 59.0 °F 73% 30.27 in 10.0 mi SE 4.6 mph - N/A   Overcast
2:35 PM 68.0 °F 59.0 °F 73% 30.26 in 10.0 mi Variable 4.6 mph - N/A   Overcast
2:55 PM 69.8 °F 59.0 °F 68% 30.26 in 10.0 mi ESE 3.5 mph - N/A   Overcast
3:15 PM 69.8 °F 59.0 °F 68% 30.25 in 10.0 mi Variable 4.6 mph - N/A   Overcast
3:35 PM 69.8 °F 59.0 °F 68% 30.24 in 10.0 mi Variable 5.8 mph - N/A   Overcast
3:55 PM 68.0 °F 59.0 °F 73% 30.24 in 10.0 mi Variable 3.5 mph - N/A   Unknown
4:15 PM 68.0 °F 59.0 °F 73% 30.24 in 10.0 mi Variable 5.8 mph - N/A   Overcast
4:35 PM 68.0 °F 59.0 °F 73% 30.24 in 10.0 mi Variable 4.6 mph - N/A   Overcast
4:55 PM 68.0 °F 59.0 °F 73% 30.23 in 10.0 mi Variable 4.6 mph - N/A   Overcast
5:15 PM 68.0 °F 59.0 °F 73% 30.23 in 10.0 mi Variable 5.8 mph - N/A   Overcast
5:35 PM 68.0 °F 59.0 °F 73% 30.23 in 10.0 mi Variable 6.9 mph 12.7 mph N/A   Overcast
5:55 PM 68.0 °F 59.0 °F 73% 30.23 in 10.0 mi Variable 4.6 mph - N/A   Mostly Cloudy
6:15 PM 66.2 °F 59.0 °F 78% 30.23 in 10.0 mi SSE 5.8 mph - N/A   Overcast
6:35 PM 66.2 °F 59.0 °F 78% 30.23 in 10.0 mi Variable 5.8 mph - N/A   Overcast
6:55 PM 66.2 °F 59.0 °F 78% 30.22 in 10.0 mi Variable 6.9 mph 12.7 mph N/A   Overcast
7:15 PM 66.2 °F 59.0 °F 78% 30.22 in 10.0 mi Variable 5.8 mph 12.7 mph N/A   Overcast
7:35 PM 66.2 °F 59.0 °F 78% 30.22 in 10.0 mi Variable 4.6 mph - N/A   Overcast
7:55 PM 66.2 °F 59.0 °F 78% 30.23 in 10.0 mi SSE 8.1 mph - N/A   Overcast
8:15 PM 64.4 °F 59.0 °F 83% 30.23 in 10.0 mi Variable 6.9 mph - N/A   Overcast
8:35 PM 64.4 °F 59.0 °F 83% 30.24 in 10.0 mi SE 5.8 mph - N/A   Overcast
8:55 PM 64.4 °F 57.2 °F 77% 30.23 in 10.0 mi Variable 5.8 mph - N/A   Overcast
9:15 PM 64.4 °F 57.2 °F 77% 30.23 in 10.0 mi Variable 4.6 mph 11.5 mph N/A   Overcast
9:35 PM 64.4 °F 57.2 °F 77% 30.24 in 10.0 mi Variable 3.5 mph - N/A   Overcast
9:55 PM 64.4 °F 57.2 °F 77% 30.23 in 10.0 mi Calm Calm - N/A   Overcast
10:15 PM 64.4 °F 59.0 °F 83% 30.23 in 10.0 mi Variable 3.5 mph - N/A   Overcast
10:35 PM 64.4 °F 57.2 °F 77% 30.24 in 10.0 mi Calm Calm - N/A   Overcast
10:55 PM 62.6 °F 57.2 °F 82% 30.24 in 10.0 mi Calm Calm - N/A   Overcast
11:15 PM 62.6 °F 57.2 °F 82% 30.24 in 10.0 mi Calm Calm - N/A   Overcast
11:35 PM 62.6 °F 57.2 °F 82% 30.22 in 10.0 mi Variable 4.6 mph - N/A   Overcast
11:55 PM 62.6 °F 57.2 °F 82% 30.22 in 10.0 mi Calm Calm - N/A   Overcast